QPF
0.01 0.00 0.00 0.01 0.01 0.00 0.00 0.00 0.00 0.00 0.00 0.00 0.00 0.00 0.00 0.00 0.00 0.00 0.00 0.00 0.00 0.00 0.00 0.00 0.00 0.00 0.00 0.00 0.00 0.00 0.00 0.00 0.00 0.00 0.00 0.00 0.00 0.00 0.00 0.00 0.00 0.01 0.01 0.02
0.00 0.00 0.00 0.00 0.00 0.00 0.00 0.00 0.00 0.00 0.00 0.00 0.00 0.00 0.00 0.00 0.00 0.00 0.00 0.00 0.00 0.00 0.00 0.00 0.00 0.00 0.00 0.00 0.00 0.00 0.00 0.00 0.00 0.00 0.00 0.00 0.00 0.00 0.00 0.00 0.01 0.01 0.01 0.01
0.00 0.00 0.00 0.00 0.00 0.00 0.00 0.00 0.00 0.00 0.00 0.00 0.00 0.00 0.00 0.00 0.00 0.00 0.00 0.00 0.00 0.00 0.00 0.00 0.00 0.00 0.00 0.00 0.00 0.00 0.00 0.00 0.00 0.00 0.00 0.00 0.00 0.00 0.00 0.00 0.00 0.00 0.00 0.01
0.00 0.00 0.00 0.00 0.00 0.00 0.00 0.00 0.00 0.00 0.00 0.00 0.00 0.00 0.00 0.00 0.00 0.00 0.00 0.00 0.00 0.00 0.00 0.00 0.00 0.00 0.00 0.00 0.00 0.00 0.00 0.00 0.00 0.00 0.00 0.00 0.00 0.00 0.00 0.00 0.00 0.00 0.00 0.00
0.00 0.00 0.00 0.00 0.00 0.00 0.00 0.00 0.00 0.00 0.00 0.00 0.00 0.00 0.00 0.00 0.00 0.00 0.00 0.00 0.00 0.00 0.00 0.00 0.00 0.00 0.00 0.00 0.00 0.00 0.00 0.00 0.00 0.00 0.00 0.00 0.00 0.00 0.00 0.00 0.00 0.00 0.00 0.00
0.00 0.00 0.00 0.00 0.00 0.00 0.00 0.01 0.00 0.00 0.00 0.00 0.00 0.00 0.00 0.00 0.00 0.00 0.00 0.00 0.00 0.00 0.00 0.00 0.00 0.00 0.00 0.00 0.00 0.00 0.00 0.00 0.00 0.00 0.00 0.00 0.00 0.00 0.00 0.00 0.00 0.00 0.00 0.00
0.00 0.00 0.00 0.00 0.00 0.00 0.00 0.01 0.00 0.00 0.00 0.00 0.00 0.00 0.00 0.00 0.00 0.00 0.00 0.00 0.00 0.00 0.00 0.00 0.00 0.00 0.00 0.00 0.00 0.00 0.00 0.00 0.00 0.00 0.00 0.00 0.00 0.00 0.00 0.00 0.00 0.00 0.00 0.00
0.00 0.00 0.00 0.00 0.00 0.00 0.00 0.00 0.00 0.00 0.00 0.00 0.00 0.00 0.00 0.00 0.00 0.00 0.00 0.00 0.00 0.00 0.00 0.00 0.00 0.00 0.00 0.00 0.00 0.00 0.00 0.00 0.00 0.00 0.00 0.00 0.00 0.00 0.00 0.00 0.00 0.00 0.00 0.00
0.00 0.00 0.00 0.00 0.00 0.01 0.00 0.00 0.00 0.00 0.00 0.00 0.00 0.00 0.00 0.00 0.00 0.00 0.00 0.00 0.00 0.00 0.00 0.00 0.00 0.00 0.00 0.00 0.00 0.00 0.00 0.00 0.00 0.00 0.00 0.00 0.00 0.00 0.00 0.00 0.00 0.00 0.00 0.00
0.00 0.00 0.00 0.00 0.00 0.00 0.00 0.00 0.00 0.00 0.00 0.00 0.00 0.00 0.00 0.00 0.00 0.00 0.00 0.00 0.00 0.00 0.00 0.00 0.00 0.00 0.00 0.00 0.00 0.00 0.00 0.00 0.00 0.00 0.00 0.00 0.00 0.00 0.00 0.00 0.00 0.00 0.00 0.00
0.00 0.00 0.00 0.00 0.00 0.00 0.00 0.00 0.00 0.00 0.00 0.00 0.00 0.00 0.00 0.00 0.00 0.00 0.00 0.00 0.00 0.00 0.00 0.00 0.00 0.00 0.00 0.00 0.00 0.00 0.00 0.00 0.00 0.00 0.00 0.00 0.00 0.00 0.00 0.00 0.00 0.00 0.00 0.00
0.00 0.00 0.00 0.00 0.00 0.00 0.00 0.00 0.00 0.00 0.00 0.00 0.00 0.00 0.00 0.00 0.00 0.00 0.00 0.00 0.00 0.00 0.00 0.00 0.00 0.00 0.00 0.00 0.00 0.00 0.00 0.00 0.00 0.00 0.00 0.00 0.00 0.00 0.00 0.00 0.00 0.00 0.00 0.00
0.00 0.00 0.00 0.00 0.00 0.00 0.00 0.00 0.00 0.00 0.00 0.00 0.00 0.00 0.00 0.00 0.00 0.00 0.00 0.00 0.00 0.00 0.00 0.00 0.00 0.00 0.00 0.00 0.00 0.00 0.00 0.00 0.00 0.00 0.00 0.00 0.00 0.00 0.00 0.00 0.00 0.00 0.00 0.00
0.00 0.00 0.00 0.00 0.00 0.00 0.00 0.00 0.00 0.00 0.00 0.00 0.00 0.00 0.00 0.00 0.00 0.00 0.00 0.00 0.00 0.00 0.00 0.00 0.00 0.00 0.00 0.00 0.00 0.00 0.00 0.00 0.00 0.00 0.00 0.00 0.00 0.00 0.00 0.00 0.00 0.00 0.00 0.00
0.00 0.00 0.00 0.00 0.00 0.00 0.00 0.00 0.00 0.00 0.00 0.00 0.00 0.00 0.00 0.00 0.00 0.00 0.00 0.00 0.00 0.00 0.00 0.00 0.00 0.00 0.00 0.00 0.00 0.00 0.00 0.00 0.00 0.00 0.00 0.00 0.00 0.00 0.00 0.00 0.00 0.00 0.00 0.00
0.00 0.00 0.00 0.00 0.00 0.00 0.00 0.00 0.00 0.00 0.00 0.00 0.00 0.00 0.00 0.00 0.00 0.00 0.00 0.00 0.00 0.00 0.00 0.00 0.00 0.00 0.00 0.00 0.00 0.00 0.00 0.00 0.00 0.00 0.00 0.00 0.00 0.00 0.00 0.00 0.00 0.00 0.00 0.00
0.00 0.00 0.00 0.00 0.00 0.00 0.00 0.00 0.00 0.00 0.00 0.00 0.00 0.00 0.00 0.00 0.00 0.00 0.00 0.00 0.00 0.00 0.00 0.00 0.00 0.00 0.00 0.00 0.00 0.00 0.00 0.00 0.00 0.00 0.00 0.00 0.00 0.00 0.00 0.00 0.00 0.00 0.00 0.00
0.00 0.00 0.00 0.00 0.00 0.00 0.00 0.00 0.00 0.00 0.00 0.00 0.00 0.00 0.00 0.00 0.00 0.00 0.00 0.00 0.00 0.00 0.00 0.00 0.00 0.00 0.00 0.00 0.00 0.00 0.00 0.00 0.00 0.00 0.00 0.00 0.00 0.00 0.00 0.00 0.00 0.00 0.00 0.00
0.00 0.00 0.00 0.00 0.00 0.00 0.00 0.00 0.00 0.00 0.00 0.00 0.00 0.00 0.00 0.00 0.00 0.00 0.00 0.00 0.00 0.00 0.00 0.00 0.00 0.00 0.00 0.00 0.00 0.00 0.00 0.00 0.00 0.00 0.00 0.00 0.00 0.00 0.00 0.00 0.00 0.00 0.00 0.00
0.00 0.00 0.00 0.00 0.00 0.00 0.00 0.00 0.00 0.00 0.00 0.00 0.00 0.00 0.00 0.00 0.00 0.00 0.00 0.00 0.00 0.00 0.00 0.00 0.00 0.00 0.00 0.00 0.00 0.00 0.01 0.01 0.01 0.01 0.01 0.01 0.01 0.00 0.00 0.00 0.00 0.00 0.00 0.00
0.01 0.01 0.00 0.00 0.00 0.00 0.00 0.00 0.00 0.00 0.00 0.00 0.01 0.01 0.00 0.00 0.00 0.00 0.00 0.00 0.00 0.00 0.01 0.01 0.01 0.01 0.01 0.01 0.01 0.00 0.01 0.01 0.01 0.02 0.02 0.02 0.02 0.02 0.01 0.00 0.00 0.00 0.00 0.00
0.02 0.02 0.01 0.01 0.00 0.00 0.00 0.00 0.00 0.00 0.00 0.00 0.00 0.00 0.00 0.00 0.01 0.01 0.01 0.01 0.01 0.02 0.02 0.02 0.02 0.02 0.02 0.01 0.01 0.01 0.01 0.01 0.01 0.01 0.02 0.02 0.02 0.02 0.02 0.01 0.01 0.00 0.00 0.00
0.01 0.01 0.02 0.01 0.01 0.01 0.01 0.01 0.00 0.00 0.00 0.00 0.00 0.00 0.01 0.01 0.01 0.02 0.02 0.03 0.03 0.03 0.03 0.04 0.04 0.04 0.03 0.02 0.02 0.01 0.01 0.01 0.01 0.01 0.01 0.02 0.02 0.02 0.02 0.02 0.01 0.01 0.01 0.00
0.01 0.01 0.02 0.01 0.01 0.01 0.01 0.01 0.01 0.00 0.00 0.00 0.00 0.00 0.00 0.01 0.01 0.02 0.02 0.03 0.04 0.04 0.04 0.04 0.04 0.04 0.03 0.03 0.03 0.03 0.02 0.02 0.02 0.01 0.01 0.01 0.01 0.02 0.02 0.02 0.02 0.02 0.02 0.01
0.02 0.02 0.01 0.01 0.01 0.01 0.01 0.01 0.01 0.01 0.01 0.00 0.00 0.00 0.01 0.01 0.01 0.01 0.01 0.03 0.03 0.04 0.04 0.05 0.05 0.05 0.05 0.05 0.06 0.05 0.05 0.04 0.03 0.03 0.02 0.01 0.01 0.02 0.02 0.03 0.03 0.03 0.03 0.02
0.01 0.01 0.01 0.01 0.01 0.01 0.01 0.01 0.02 0.03 0.02 0.02 0.02 0.02 0.02 0.02 0.02 0.02 0.02 0.02 0.03 0.03 0.03 0.03 0.03 0.03 0.04 0.05 0.05 0.06 0.06 0.06 0.05 0.04 0.03 0.02 0.02 0.02 0.02 0.02 0.02 0.01 0.01 0.01
0.00 0.00 0.01 0.01 0.01 0.01 0.01 0.02 0.03 0.04 0.05 0.05 0.05 0.05 0.05 0.05 0.05 0.04 0.04 0.03 0.03 0.02 0.02 0.02 0.02 0.02 0.03 0.04 0.04 0.04 0.05 0.05 0.05 0.04 0.03 0.02 0.02 0.02 0.01 0.01 0.01 0.01 0.01 0.01
MSLP
1009.81 1009.79 1009.80 1009.85 1009.93 1010.01 1010.05 1010.00 1009.82 1009.47 1008.96 1008.30 1007.55 1006.78 1006.05 1005.43 1004.97 1004.70 1004.63 1004.75 1005.01 1005.38 1005.81 1006.27 1006.74 1007.21 1007.67 1008.12 1008.57 1009.02 1009.45 1009.86 1010.23 1010.55 1010.81 1011.01 1011.15 1011.25 1011.33 1011.41 1011.51 1011.63 1011.78 1011.94
1009.89 1009.82 1009.74 1009.66 1009.58 1009.51 1009.40 1009.25 1009.00 1008.64 1008.17 1007.60 1006.96 1006.29 1005.64 1005.07 1004.62 1004.32 1004.18 1004.20 1004.37 1004.65 1005.02 1005.46 1005.94 1006.45 1006.97 1007.50 1008.02 1008.54 1009.03 1009.48 1009.89 1010.24 1010.53 1010.75 1010.93 1011.07 1011.19 1011.30 1011.43 1011.57 1011.73 1011.89
1009.87 1009.75 1009.59 1009.40 1009.20 1008.99 1008.77 1008.52 1008.23 1007.88 1007.46 1006.98 1006.44 1005.88 1005.33 1004.83 1004.40 1004.07 1003.87 1003.80 1003.85 1004.04 1004.32 1004.70 1005.16 1005.67 1006.22 1006.79 1007.37 1007.94 1008.49 1009.00 1009.45 1009.84 1010.16 1010.43 1010.65 1010.83 1010.99 1011.14 1011.29 1011.45 1011.61 1011.77
1009.73 1009.57 1009.34 1009.06 1008.76 1008.44 1008.13 1007.82 1007.50 1007.17 1006.82 1006.43 1006.02 1005.58 1005.13 1004.70 1004.30 1003.97 1003.71 1003.55 1003.50 1003.57 1003.76 1004.05 1004.44 1004.91 1005.45 1006.04 1006.66 1007.27 1007.86 1008.41 1008.91 1009.34 1009.72 1010.03 1010.29 1010.52 1010.72 1010.90 1011.07 1011.24 1011.40 1011.55
1009.49 1009.28 1008.98 1008.63 1008.24 1007.85 1007.48 1007.13 1006.81 1006.52 1006.24 1005.96 1005.67 1005.36 1005.03 1004.68 1004.33 1003.99 1003.70 1003.47 1003.32 1003.27 1003.34 1003.52 1003.83 1004.23 1004.73 1005.30 1005.91 1006.54 1007.16 1007.75 1008.29 1008.78 1009.20 1009.57 1009.88 1010.15 1010.38 1010.59 1010.77 1010.94 1011.08 1011.21
1009.20 1008.91 1008.54 1008.12 1007.67 1007.23 1006.82 1006.46 1006.17 1005.92 1005.73 1005.55 1005.38 1005.20 1004.98 1004.72 1004.43 1004.11 1003.79 1003.50 1003.26 1003.11 1003.06 1003.13 1003.33 1003.65 1004.08 1004.61 1005.19 1005.82 1006.45 1007.06 1007.64 1008.17 1008.64 1009.06 1009.41 1009.72 1009.98 1010.21 1010.40 1010.55 1010.68 1010.78
1008.88 1008.50 1008.05 1007.57 1007.07 1006.60 1006.18 1005.84 1005.57 1005.39 1005.28 1005.21 1005.15 1005.08 1004.96 1004.79 1004.56 1004.27 1003.94 1003.60 1003.29 1003.05 1002.89 1002.85 1002.93 1003.16 1003.50 1003.96 1004.51 1005.11 1005.73 1006.36 1006.97 1007.54 1008.05 1008.51 1008.92 1009.26 1009.55 1009.78 1009.97 1010.11 1010.21 1010.28
1008.58 1008.10 1007.58 1007.04 1006.51 1006.03 1005.62 1005.29 1005.07 1004.95 1004.91 1004.93 1004.97 1004.98 1004.96 1004.86 1004.67 1004.41 1004.08 1003.72 1003.35 1003.02 1002.77 1002.63 1002.61 1002.73 1002.99 1003.37 1003.86 1004.42 1005.03 1005.66 1006.28 1006.88 1007.44 1007.94 1008.38 1008.76 1009.08 1009.33 1009.52 1009.65 1009.73 1009.78
1008.31 1007.73 1007.14 1006.56 1006.02 1005.55 1005.16 1004.87 1004.70 1004.63 1004.65 1004.73 1004.83 1004.92 1004.95 1004.89 1004.75 1004.50 1004.17 1003.78 1003.37 1002.99 1002.66 1002.42 1002.31 1002.34 1002.50 1002.80 1003.22 1003.73 1004.31 1004.92 1005.55 1006.17 1006.76 1007.31 1007.80 1008.22 1008.57 1008.85 1009.05 1009.19 1009.27 1009.31
1008.03 1007.38 1006.75 1006.16 1005.63 1005.18 1004.82 1004.58 1004.45 1004.43 1004.49 1004.61 1004.75 1004.86 1004.92 1004.89 1004.76 1004.52 1004.18 1003.78 1003.33 1002.90 1002.51 1002.20 1002.00 1001.94 1002.01 1002.22 1002.56 1003.01 1003.54 1004.13 1004.75 1005.38 1005.99 1006.58 1007.12 1007.59 1007.99 1008.32 1008.57 1008.74 1008.85 1008.90
1007.72 1007.03 1006.40 1005.82 1005.32 1004.91 1004.60 1004.41 1004.32 1004.34 1004.42 1004.56 1004.70 1004.82 1004.88 1004.84 1004.70 1004.46 1004.11 1003.69 1003.22 1002.75 1002.31 1001.94 1001.66 1001.51 1001.50 1001.62 1001.87 1002.23 1002.69 1003.23 1003.83 1004.45 1005.09 1005.71 1006.30 1006.84 1007.32 1007.72 1008.05 1008.29 1008.46 1008.56
1007.31 1006.64 1006.03 1005.49 1005.05 1004.70 1004.46 1004.32 1004.27 1004.31 1004.41 1004.54 1004.67 1004.77 1004.81 1004.76 1004.60 1004.34 1003.98 1003.55 1003.06 1002.56 1002.08 1001.66 1001.32 1001.08 1000.96 1000.98 1001.13 1001.39 1001.77 1002.24 1002.78 1003.38 1004.03 1004.68 1005.33 1005.94 1006.51 1007.02 1007.45 1007.80 1008.06 1008.26
1006.80 1006.17 1005.62 1005.16 1004.78 1004.51 1004.33 1004.24 1004.23 1004.29 1004.39 1004.52 1004.63 1004.71 1004.72 1004.64 1004.47 1004.20 1003.84 1003.39 1002.90 1002.38 1001.87 1001.40 1000.99 1000.67 1000.45 1000.35 1000.38 1000.52 1000.78 1001.16 1001.63 1002.19 1002.82 1003.49 1004.19 1004.88 1005.55 1006.18 1006.74 1007.22 1007.62 1007.94
1006.19 1005.64 1005.17 1004.79 1004.50 1004.30 1004.19 1004.15 1004.17 1004.25 1004.35 1004.47 1004.56 1004.62 1004.61 1004.52 1004.34 1004.07 1003.71 1003.27 1002.78 1002.26 1001.72 1001.21 1000.74 1000.33 1000.00 999.78 999.67 999.68 999.81 1000.06 1000.44 1000.93 1001.52 1002.20 1002.93 1003.69 1004.46 1005.21 1005.90 1006.53 1007.08 1007.54
1005.57 1005.11 1004.73 1004.44 1004.23 1004.09 1004.03 1004.03 1004.08 1004.16 1004.27 1004.37 1004.46 1004.50 1004.49 1004.40 1004.23 1003.97 1003.64 1003.22 1002.74 1002.22 1001.67 1001.13 1000.60 1000.10 999.67 999.32 999.07 998.93 998.91 999.03 999.29 999.69 1000.22 1000.87 1001.62 1002.43 1003.28 1004.13 1004.96 1005.73 1006.42 1007.02
1005.07 1004.70 1004.40 1004.17 1004.02 1003.93 1003.89 1003.91 1003.97 1004.06 1004.16 1004.26 1004.34 1004.38 1004.37 1004.30 1004.15 1003.93 1003.62 1003.24 1002.79 1002.28 1001.73 1001.16 1000.58 1000.02 999.49 999.02 998.63 998.34 998.18 998.16 998.29 998.58 999.03 999.63 1000.37 1001.20 1002.09 1003.03 1003.95 1004.84 1005.65 1006.39
1004.81 1004.51 1004.28 1004.09 1003.97 1003.89 1003.86 1003.87 1003.91 1003.98 1004.07 1004.15 1004.23 1004.27 1004.28 1004.23 1004.11 1003.92 1003.65 1003.31 1002.90 1002.41 1001.87 1001.29 1000.68 1000.06 999.46 998.89 998.38 997.97 997.67 997.52 997.52 997.70 998.06 998.59 999.28 1000.09 1001.01 1001.97 1002.96 1003.93 1004.84 1005.67
1004.90 1004.66 1004.46 1004.29 1004.16 1004.06 1004.00 1003.97 1003.97 1004.00 1004.04 1004.10 1004.16 1004.19 1004.20 1004.17 1004.08 1003.92 1003.69 1003.39 1003.01 1002.56 1002.04 1001.47 1000.85 1000.20 999.55 998.92 998.33 997.82 997.42 997.16 997.05 997.12 997.39 997.84 998.46 999.23 1000.11 1001.08 1002.08 1003.08 1004.05 1004.94
1005.40 1005.19 1004.99 1004.81 1004.64 1004.48 1004.35 1004.25 1004.18 1004.14 1004.12 1004.13 1004.14 1004.15 1004.14 1004.10 1004.02 1003.88 1003.68 1003.41 1003.06 1002.64 1002.16 1001.61 1001.01 1000.37 999.71 999.06 998.45 997.89 997.44 997.10 996.92 996.91 997.08 997.44 997.99 998.68 999.51 1000.43 1001.41 1002.41 1003.38 1004.30
1006.24 1006.04 1005.83 1005.60 1005.37 1005.13 1004.91 1004.71 1004.54 1004.41 1004.30 1004.22 1004.17 1004.12 1004.07 1004.00 1003.90 1003.76 1003.56 1003.31 1002.99 1002.61 1002.16 1001.65 1001.10 1000.50 999.89 999.27 998.68 998.13 997.67 997.31 997.10 997.03 997.14 997.43 997.88 998.50 999.25 1000.10 1001.02 1001.97 1002.91 1003.83
1007.27 1007.07 1006.83 1006.55 1006.24 1005.91 1005.59 1005.28 1004.99 1004.74 1004.53 1004.35 1004.21 1004.08 1003.96 1003.84 1003.69 1003.52 1003.31 1003.06 1002.76 1002.41 1002.01 1001.56 1001.08 1000.56 1000.03 999.49 998.97 998.49 998.07 997.74 997.53 997.45 997.52 997.74 998.13 998.66 999.32 1000.08 1000.92 1001.80 1002.70 1003.58
1008.28 1008.08 1007.80 1007.47 1007.08 1006.67 1006.24 1005.82 1005.42 1005.05 1004.73 1004.45 1004.20 1003.98 1003.78 1003.58 1003.38 1003.16 1002.93 1002.66 1002.37 1002.05 1001.70 1001.33 1000.93 1000.52 1000.10 999.68 999.28 998.90 998.57 998.32 998.15 998.08 998.14 998.33 998.65 999.10 999.67 1000.34 1001.09 1001.89 1002.72 1003.55
1009.07 1008.85 1008.55 1008.16 1007.72 1007.23 1006.71 1006.20 1005.71 1005.24 1004.82 1004.44 1004.09 1003.79 1003.50 1003.23 1002.96 1002.70 1002.43 1002.15 1001.87 1001.58 1001.28 1000.99 1000.70 1000.40 1000.11 999.83 999.57 999.33 999.12 998.95 998.86 998.83 998.90 999.07 999.35 999.74 1000.23 1000.81 1001.47 1002.19 1002.94 1003.72
1009.45 1009.22 1008.89 1008.48 1007.99 1007.45 1006.88 1006.30 1005.74 1005.21 1004.72 1004.27 1003.86 1003.48 1003.12 1002.79 1002.47 1002.17 1001.87 1001.58 1001.31 1001.05 1000.81 1000.60 1000.41 1000.23 1000.08 999.94 999.82 999.72 999.64 999.58 999.57 999.61 999.70 999.87 1000.12 1000.46 1000.88 1001.38 1001.96 1002.60 1003.28 1004.00
1009.32 1009.08 1008.74 1008.31 1007.81 1007.25 1006.66 1006.06 1005.48 1004.93 1004.41 1003.92 1003.48 1003.06 1002.67 1002.31 1001.96 1001.62 1001.31 1001.02 1000.77 1000.54 1000.36 1000.21 1000.11 1000.05 1000.01 1000.00 1000.02 1000.04 1000.08 1000.13 1000.20 1000.30 1000.43 1000.61 1000.84 1001.14 1001.51 1001.94 1002.45 1003.02 1003.64 1004.30
1008.70 1008.45 1008.11 1007.68 1007.18 1006.63 1006.06 1005.48 1004.92 1004.38 1003.88 1003.41 1002.98 1002.57 1002.18 1001.81 1001.46 1001.13 1000.82 1000.54 1000.30 1000.11 999.97 999.88 999.85 999.86 999.92 1000.02 1000.13 1000.26 1000.40 1000.54 1000.68 1000.83 1001.00 1001.19 1001.42 1001.69 1002.02 1002.41 1002.86 1003.37 1003.94 1004.55
1007.67 1007.41 1007.07 1006.66 1006.18 1005.67 1005.15 1004.63 1004.13 1003.65 1003.21 1002.79 1002.41 1002.04 1001.69 1001.35 1001.02 1000.71 1000.42 1000.16 999.94 999.77 999.66 999.61 999.62 999.69 999.81 999.96 1000.15 1000.35 1000.55 1000.75 1000.95 1001.15 1001.34 1001.55 1001.78 1002.05 1002.35 1002.71 1003.12 1003.59 1004.12 1004.69
Thickness
5741 5749 5751 5746 5745 5746 5741 5740 5731 5736 5743 5753 5763 5766 5769 5770 5768 5766 5764 5763 5760 5756 5754 5751 5749 5746 5744 5740 5737 5734 5728 5723 5719 5716 5713 5709 5706 5703 5700 5697 5694 5691 5688 5685
5740 5750 5751 5746 5749 5748 5745 5746 5743 5743 5745 5765 5770 5771 5768 5768 5766 5763 5762 5762 5762 5759 5755 5752 5749 5746 5743 5740 5737 5734 5728 5723 5720 5716 5712 5708 5705 5702 5699 5696 5693 5691 5688 5685
5727 5743 5742 5733 5749 5750 5749 5753 5749 5739 5748 5763 5762 5763 5764 5766 5764 5762 5762 5763 5761 5760 5757 5755 5752 5749 5743 5741 5738 5733 5728 5723 5719 5715 5711 5708 5705 5702 5698 5695 5692 5689 5687 5684
5725 5727 5710 5742 5765 5761 5753 5753 5757 5755 5758 5760 5761 5765 5768 5770 5766 5763 5763 5762 5761 5760 5759 5758 5756 5752 5747 5742 5737 5732 5727 5723 5719 5715 5710 5707 5703 5700 5697 5695 5692 5689 5686 5684
5719 5714 5723 5746 5758 5757 5746 5742 5758 5755 5757 5760 5763 5762 5761 5768 5768 5766 5764 5762 5761 5760 5759 5757 5755 5752 5747 5741 5736 5731 5726 5722 5718 5714 5709 5705 5702 5699 5697 5694 5691 5688 5687 5684
5715 5706 5705 5732 5754 5762 5748 5730 5753 5755 5752 5754 5753 5737 5743 5761 5764 5764 5763 5761 5759 5758 5756 5753 5752 5750 5744 5739 5734 5729 5726 5722 5719 5714 5709 5704 5701 5698 5696 5693 5690 5688 5686 5684
5709 5707 5719 5740 5752 5750 5719 5720 5746 5749 5747 5746 5742 5741 5749 5758 5758 5758 5757 5756 5755 5752 5749 5748 5748 5745 5739 5736 5732 5730 5726 5722 5717 5713 5709 5704 5701 5698 5694 5692 5689 5686 5684 5683
5712 5703 5708 5739 5740 5728 5726 5739 5740 5740 5740 5739 5740 5744 5747 5749 5749 5750 5749 5749 5748 5744 5743 5744 5744 5740 5735 5731 5731 5729 5724 5718 5714 5711 5707 5704 5698 5695 5692 5689 5685 5683 5681 5679
5716 5714 5726 5733 5730 5732 5734 5730 5731 5731 5733 5732 5732 5734 5737 5739 5741 5743 5743 5742 5741 5738 5736 5737 5737 5734 5729 5728 5728 5724 5718 5714 5710 5707 5704 5700 5695 5691 5688 5685 5682 5679 5677 5674
5712 5718 5723 5725 5726 5726 5725 5722 5723 5724 5725 5725 5723 5726 5728 5731 5734 5735 5735 5734 5733 5731 5729 5728 5730 5729 5727 5725 5723 5718 5713 5709 5706 5702 5699 5695 5691 5687 5682 5678 5676 5674 5672 5669
5698 5706 5709 5712 5713 5713 5714 5715 5715 5715 5716 5716 5717 5718 5720 5722 5725 5727 5728 5728 5727 5724 5723 5723 5723 5722 5722 5720 5717 5712 5709 5705 5702 5698 5694 5688 5683 5678 5676 5672 5670 5668 5666 5664
5683 5693 5692 5695 5702 5702 5700 5700 5701 5702 5703 5707 5709 5710 5712 5714 5718 5720 5720 5720 5719 5718 5717 5718 5717 5716 5715 5714 5712 5708 5704 5701 5697 5693 5688 5683 5676 5670 5667 5665 5664 5662 5661 5658
5685 5687 5686 5687 5689 5690 5688 5689 5690 5691 5693 5695 5699 5702 5704 5706 5709 5711 5712 5712 5711 5711 5711 5712 5711 5709 5709 5708 5705 5702 5698 5695 5692 5689 5684 5679 5674 5667 5660 5655 5654 5653 5652 5650
5675 5673 5670 5672 5672 5675 5676 5678 5679 5680 5683 5686 5688 5690 5692 5695 5698 5700 5702 5704 5704 5704 5704 5704 5703 5702 5702 5701 5698 5695 5692 5689 5686 5682 5679 5676 5672 5667 5661 5655 5649 5645 5643 5642
5659 5657 5655 5657 5659 5660 5661 5662 5662 5664 5668 5672 5675 5677 5678 5680 5684 5688 5692 5694 5695 5694 5694 5694 5693 5693 5694 5692 5689 5686 5684 5680 5678 5676 5673 5670 5667 5663 5659 5655 5650 5644 5638 5633
5642 5642 5641 5641 5641 5642 5643 5644 5644 5648 5652 5656 5658 5661 5665 5668 5671 5675 5679 5681 5680 5681 5682 5683 5682 5683 5683 5681 5679 5676 5674 5672 5670 5667 5665 5662 5660 5656 5652 5649 5645 5640 5634 5629
5622 5621 5621 5621 5623 5624 5626 5627 5629 5632 5635 5638 5642 5646 5650 5653 5656 5659 5663 5667 5669 5670 5672 5672 5671 5671 5671 5669 5668 5665 5663 5661 5660 5658 5655 5654 5651 5648 5645 5641 5637 5632 5627 5623
5608 5606 5606 5606 5607 5608 5610 5612 5614 5616 5619 5623 5627 5631 5633 5636 5639 5643 5648 5652 5654 5656 5658 5660 5659 5658 5658 5658 5656 5654 5652 5650 5648 5647 5645 5644 5641 5639 5635 5631 5627 5622 5616 5613
5593 5591 5591 5591 5592 5593 5594 5596 5598 5600 5604 5607 5611 5614 5619 5622 5626 5630 5634 5636 5638 5639 5643 5645 5645 5644 5644 5645 5643 5641 5640 5639 5637 5636 5634 5631 5629 5627 5624 5620 5616 5612 5608 5603
5577 5577 5576 5576 5577 5577 5579 5581 5583 5585 5589 5592 5595 5599 5603 5608 5612 5616 5619 5621 5624 5627 5629 5630 5630 5630 5631 5630 5630 5628 5628 5626 5625 5623 5621 5619 5617 5615 5612 5609 5605 5601 5598 5594
5562 5562 5561 5561 5561 5563 5564 5566 5568 5571 5574 5577 5580 5584 5589 5594 5598 5602 5604 5606 5611 5614 5615 5615 5615 5616 5616 5615 5615 5615 5615 5613 5612 5610 5608 5606 5604 5602 5599 5596 5593 5590 5586 5582
5546 5546 5547 5547 5548 5548 5551 5553 5556 5558 5561 5564 5567 5571 5575 5579 5584 5587 5591 5593 5597 5599 5599 5599 5601 5602 5602 5601 5600 5600 5600 5599 5598 5596 5595 5592 5590 5588 5585 5583 5580 5576 5573 5570
5532 5533 5533 5535 5536 5536 5538 5540 5543 5545 5547 5550 5554 5558 5562 5566 5569 5572 5575 5580 5583 5584 5583 5584 5586 5586 5586 5585 5585 5585 5585 5584 5583 5582 5580 5578 5576 5574 5571 5569 5566 5563 5559 5556
5521 5521 5522 5524 5525 5525 5526 5528 5529 5532 5534 5538 5542 5546 5550 5553 5557 5561 5564 5567 5568 5568 5569 5569 5570 5570 5569 5569 5570 5570 5569 5569 5567 5566 5565 5564 5561 5559 5557 5554 5552 5549 5546 5542
5510 5511 5512 5513 5514 5514 5515 5516 5518 5520 5522 5525 5529 5533 5537 5541 5543 5547 5550 5551 5553 5553 5553 5554 5555 5554 5554 5554 5555 5556 5555 5553 5552 5550 5549 5547 5545 5543 5541 5539 5537 5534 5531 5529
5500 5501 5502 5503 5504 5503 5504 5505 5507 5508 5509 5512 5516 5518 5522 5526 5529 5533 5535 5536 5538 5538 5539 5539 5539 5540 5540 5540 5541 5541 5540 5538 5536 5535 5533 5532 5530 5528 5526 5525 5523 5520 5518 5516
5491 5492 5492 5493 5495 5495 5495 5496 5497 5498 5499 5501 5503 5505 5508 5511 5514 5517 5520 5521 5522 5523 5524 5525 5525 5525 5526 5527 5527 5526 5526 5524 5523 5521 5520 5518 5516 5515 5513 5512 5510 5508 5506 5503